• In Österreich
  • Länderverzeichnis
  • Für 7 Tage
  • Wassertemperatur
  • Satellitenkarten
  • Wetterkarte
  • News
  • Widgets
  • user-avatar
    Anmelden

    Stündliche Wetter Wieliczka

    Heute, 23 April, Montag

    Zeit Temperatur Niederschläge Wind Luftdruck Luftfeuchtigkeit
    00:00 +12°C° 0 mm 1 m/S 736 mmHg 62%
    01:00 +11°C° 0 mm 1 m/S 736 mmHg 59%
    02:00 +11°C° 0 mm 1 m/S 735 mmHg 60%
    03:00 +11°C° 0 mm 1 m/S 735 mmHg 61%
    04:00 +10°C° 0 mm 1 m/S 735 mmHg 61%
    05:00 +12°C° 0 mm 1 m/S 735 mmHg 59%
    06:00 +14°C° 0 mm 1 m/S 735 mmHg 57%
    07:00 +15°C° 0 mm 1 m/S 735 mmHg 53%
    08:00 +18°C° 0 mm 1 m/S 735 mmHg 50%
    09:00 +20°C° 0 mm 2 m/S 735 mmHg 46%
    10:00 +23°C° 0 mm 2 m/S 735 mmHg 42%
    11:00 +24°C° 0 mm 2 m/S 735 mmHg 41%
    12:00 +25°C° 0 mm 2 m/S 735 mmHg 39%
    13:00 +26°C° 0 mm 2 m/S 734 mmHg 38%
    14:00 +26°C° 0 mm 3 m/S 734 mmHg 42%
    15:00 +25°C° 0 mm 3 m/S 734 mmHg 46%
    16:00 +25°C° 0 mm 3 m/S 733 mmHg 50%
    17:00 +22°C° 0,4 mm 3 m/S 733 mmHg 57%
    18:00 +20°C° 0,4 mm 3 m/S 733 mmHg 64%
    19:00 +18°C° 0,4 mm 3 m/S 733 mmHg 71%
    20:00 +18°C° 0,4 mm 3 m/S 733 mmHg 75%
    21:00 +17°C° 0,4 mm 2 m/S 733 mmHg 80%
    22:00 +16°C° 0,4 mm 2 m/S 733 mmHg 84%
    23:00 +16°C° 0,1 mm 2 m/S 734 mmHg 86%

    Morgen, 24 April, Dienstag

    Zeit Temperatur Niederschläge Wind Luftdruck Luftfeuchtigkeit
    00:00 +15°C° 0,1 mm 2 m/S 734 mmHg 88%
    01:00 +14°C° 0,1 mm 3 m/S 734 mmHg 90%
    02:00 +13°C° 0 mm 3 m/S 734 mmHg 91%
    03:00 +13°C° 0 mm 3 m/S 735 mmHg 93%
    04:00 +13°C° 0 mm 3 m/S 735 mmHg 94%
    05:00 +13°C° 0 mm 3 m/S 735 mmHg 91%
    06:00 +15°C° 0 mm 2 m/S 736 mmHg 88%
    07:00 +15°C° 0 mm 2 m/S 736 mmHg 85%
    08:00 +16°C° 0 mm 3 m/S 736 mmHg 77%
    09:00 +17°C° 0 mm 3 m/S 737 mmHg 69%
    10:00 +19°C° 0 mm 3 m/S 737 mmHg 61%
    11:00 +19°C° 0 mm 3 m/S 737 mmHg 57%
    12:00 +20°C° 0 mm 4 m/S 737 mmHg 52%
    13:00 +21°C° 0 mm 4 m/S 736 mmHg 48%
    14:00 +21°C° 0 mm 4 m/S 736 mmHg 48%
    15:00 +21°C° 0 mm 4 m/S 736 mmHg 49%
    16:00 +21°C° 0 mm 4 m/S 735 mmHg 49%
    17:00 +20°C° 0 mm 3 m/S 735 mmHg 55%
    18:00 +18°C° 0 mm 2 m/S 735 mmHg 61%
    19:00 +16°C° 0 mm 2 m/S 735 mmHg 67%
    20:00 +16°C° 0 mm 2 m/S 735 mmHg 69%
    21:00 +15°C° 0 mm 2 m/S 735 mmHg 71%
    22:00 +15°C° 0 mm 2 m/S 736 mmHg 73%
    23:00 +14°C° 0 mm 2 m/S 735 mmHg 75%

    übermorgen, 25 April, Mittwoch

    Zeit Temperatur Niederschläge Wind Luftdruck Luftfeuchtigkeit
    00:00 +14°C° 0 mm 2 m/S 735 mmHg 77%
    01:00 +13°C° 0 mm 2 m/S 735 mmHg 79%
    02:00 +13°C° 0 mm 2 m/S 735 mmHg 80%
    03:00 +13°C° 0 mm 2 m/S 735 mmHg 82%
    04:00 +12°C° 0 mm 2 m/S 735 mmHg 83%
    05:00 +14°C° 0 mm 2 m/S 735 mmHg 79%
    06:00 +15°C° 0 mm 2 m/S 735 mmHg 74%
    07:00 +16°C° 0 mm 2 m/S 735 mmHg 69%
    08:00 +18°C° 0 mm 3 m/S 735 mmHg 62%
    09:00 +20°C° 0 mm 3 m/S 735 mmHg 55%
    10:00 +22°C° 0 mm 4 m/S 735 mmHg 48%
    11:00 +22°C° 0 mm 5 m/S 735 mmHg 45%
    12:00 +23°C° 0 mm 5 m/S 734 mmHg 42%
    13:00 +24°C° 0 mm 6 m/S 734 mmHg 39%
    14:00 +24°C° 0 mm 6 m/S 733 mmHg 42%
    15:00 +24°C° 0 mm 6 m/S 733 mmHg 44%
    16:00 +24°C° 0 mm 6 m/S 732 mmHg 47%
    17:00 +22°C° 0 mm 5 m/S 732 mmHg 53%
    18:00 +20°C° 0 mm 4 m/S 732 mmHg 59%
    19:00 +19°C° 0 mm 4 m/S 732 mmHg 65%
    20:00 +18°C° 0 mm 4 m/S 732 mmHg 68%
    21:00 +17°C° 0 mm 4 m/S 733 mmHg 71%
    22:00 +17°C° 0 mm 4 m/S 733 mmHg 74%
    23:00 +16°C° 0 mm 3 m/S 733 mmHg 77%

    26 April, Donnerstag

    Zeit Temperatur Niederschläge Wind Luftdruck Luftfeuchtigkeit
    00:00 +14°C° 0 mm 3 m/S 733 mmHg 81%
    01:00 +14°C° 0 mm 2 m/S 733 mmHg 85%
    02:00 +14°C° 0 mm 2 m/S 733 mmHg 87%
    03:00 +13°C° 0 mm 2 m/S 733 mmHg 89%
    04:00 +13°C° 0 mm 2 m/S 733 mmHg 91%
    05:00 +14°C° 0 mm 2 m/S 734 mmHg 85%
    06:00 +15°C° 0 mm 2 m/S 734 mmHg 80%
    07:00 +16°C° 0 mm 2 m/S 734 mmHg 75%
    08:00 +17°C° 0 mm 2 m/S 734 mmHg 70%
    09:00 +18°C° 0 mm 2 m/S 734 mmHg 64%
    10:00 +19°C° 0 mm 2 m/S 735 mmHg 59%
    11:00 +20°C° 0,1 mm 3 m/S 734 mmHg 57%
    12:00 +20°C° 0,1 mm 3 m/S 734 mmHg 54%
    13:00 +20°C° 0,1 mm 3 m/S 734 mmHg 52%
    14:00 +19°C° 0,3 mm 3 m/S 733 mmHg 59%
    15:00 +17°C° 0,3 mm 3 m/S 733 mmHg 66%
    16:00 +15°C° 0,3 mm 4 m/S 733 mmHg 73%
    17:00 +14°C° 0,4 mm 3 m/S 733 mmHg 78%
    18:00 +13°C° 0,4 mm 3 m/S 734 mmHg 83%
    19:00 +12°C° 0,4 mm 3 m/S 734 mmHg 88%
    20:00 +11°C° 0,3 mm 3 m/S 734 mmHg 88%
    21:00 +11°C° 0,3 mm 3 m/S 735 mmHg 88%
    22:00 +11°C° 0,3 mm 3 m/S 735 mmHg 88%
    23:00 +10°C° 0,2 mm 3 m/S 735 mmHg 86%

    27 April, Freitag

    Zeit Temperatur Niederschläge Wind Luftdruck Luftfeuchtigkeit
    00:00 +10°C° 0,2 mm 3 m/S 736 mmHg 85%
    01:00 +10°C° 0,2 mm 3 m/S 736 mmHg 84%
    02:00 +9°C° 0 mm 2 m/S 736 mmHg 85%
    03:00 +8°C° 0 mm 2 m/S 736 mmHg 85%
    04:00 +7°C° 0 mm 2 m/S 736 mmHg 85%
    05:00 +8°C° 0 mm 2 m/S 736 mmHg 79%
    06:00 +9°C° 0 mm 2 m/S 737 mmHg 73%
    07:00 +10°C° 0 mm 3 m/S 737 mmHg 67%
    08:00 +12°C° 0 mm 2 m/S 737 mmHg 60%
    09:00 +13°C° 0 mm 2 m/S 737 mmHg 53%
    10:00 +15°C° 0 mm 2 m/S 737 mmHg 46%
    11:00 +15°C° 0 mm 2 m/S 737 mmHg 44%
    12:00 +16°C° 0 mm 2 m/S 737 mmHg 41%
    13:00 +17°C° 0 mm 2 m/S 737 mmHg 39%
    14:00 +17°C° 0 mm 2 m/S 737 mmHg 38%
    15:00 +18°C° 0 mm 1 m/S 736 mmHg 38%
    16:00 +18°C° 0 mm 1 m/S 736 mmHg 38%
    17:00 +16°C° 0 mm 1 m/S 736 mmHg 45%
    18:00 +14°C° 0 mm 2 m/S 736 mmHg 52%
    19:00 +12°C° 0 mm 2 m/S 736 mmHg 59%
    20:00 +10°C° 0 mm 3 m/S 736 mmHg 62%
    21:00 +10°C° 0 mm 3 m/S 736 mmHg 65%
    22:00 +9°C° 0 mm 3 m/S 736 mmHg 68%
    23:00 +9°C° 0 mm 3 m/S 736 mmHg 70%

    28 April, Samstag

    Zeit Temperatur Niederschläge Wind Luftdruck Luftfeuchtigkeit
    00:00 +8°C° 0 mm 3 m/S 736 mmHg 72%
    01:00 +8°C° 0 mm 3 m/S 736 mmHg 74%
    02:00 +8°C° 0 mm 2 m/S 735 mmHg 75%
    03:00 +8°C° 0 mm 2 m/S 735 mmHg 76%
    04:00 +8°C° 0 mm 2 m/S 735 mmHg 78%
    05:00 +9°C° 0 mm 2 m/S 735 mmHg 73%
    06:00 +12°C° 0 mm 2 m/S 735 mmHg 68%
    07:00 +14°C° 0 mm 2 m/S 735 mmHg 63%
    08:00 +16°C° 0 mm 2 m/S 735 mmHg 58%
    09:00 +18°C° 0 mm 2 m/S 735 mmHg 53%
    10:00 +20°C° 0 mm 2 m/S 735 mmHg 47%
    11:00 +21°C° 0 mm 2 m/S 735 mmHg 44%
    12:00 +23°C° 0 mm 2 m/S 735 mmHg 41%
    13:00 +25°C° 0 mm 2 m/S 734 mmHg 38%
    14:00 +25°C° 0 mm 2 m/S 734 mmHg 40%
    15:00 +25°C° 0 mm 2 m/S 734 mmHg 41%
    16:00 +25°C° 0 mm 2 m/S 733 mmHg 42%
    17:00 +23°C° 0 mm 1 m/S 733 mmHg 50%
    18:00 +21°C° 0 mm 1 m/S 733 mmHg 57%
    19:00 +18°C° 0 mm 1 m/S 733 mmHg 65%
    20:00 +18°C° 0 mm 1 m/S 733 mmHg 68%
    21:00 +16°C° 0 mm 1 m/S 734 mmHg 72%
    22:00 +15°C° 0 mm 1 m/S 734 mmHg 75%
    23:00 +15°C° 0 mm 1 m/S 734 mmHg 77%
    Mehr zeigen